Niagara Falls, NY

2:40 AM EST on December 14, 2019 (GMT -0500)
Niagara Falls International

Weather History for KIAG - November, 2019

Change the Weather History Date:

Tuesday, November 19, 2019

  Actual Average Record
Temperature  
Mean Temperature 38 °F -  
Max Temperature 41 °F 45 °F 63 °F (1991)
Min Temperature 34 °F 30 °F 15 °F (2014)
Degree Days  
Heating Degree Days 28    
Moisture  
Dew Point 32 °F    
Average Humidity 86    
Maximum Humidity 92    
Minimum Humidity 73    
Precipitation  
Precipitation 0.00 in - - ()
Sea Level Pressure  
Sea Level Pressure 29.86 in    
Wind  
Wind Speed 4 mph (ENE)    
Max Wind Speed 7 mph    
Max Gust Speed -    
Visibility 10 miles    
Events      
Averages and records for this station are not official NWS values.
T = Trace of Precipitation, MM = Missing Value Source: NWS Daily Summary

Daily Weather History Graph

Daily Weather History Graph

Search for Another Location

Airport or City:

Astronomy

Nov. 19, 2019 Rise Set
Actual Time 7:13 AM EST 4:48 PM EST
Civil Twilight 6:42 AM EST 5:19 PM EST
Nautical Twilight 6:07 AM EST 5:54 PM EST
Astronomical Twilight 5:33 AM EST 6:27 PM EST
Moon 11:44 PM EST (11/19) 1:21 PM EST (11/19)
Length of Visible Light 10h 37m
Length of Day
9h 35m
Waning Gibbous, 52% of the Moon is Illuminated
Nov 19
Waning Gibbous
Nov 19
Last Quarter
Nov 26
New
Dec 4
First Quarter
Dec 12
Full

Hourly Weather History & Observations

Time (EST) Temp. Windchill Dew Point Humidity Pressure Visibility Wind Dir Wind Speed Gust Speed Precip Events Conditions
12:53 AM 34.0 °F 29.8 °F 30.9 °F 89% 29.78 in 10.0 mi NE 4.6 mph - N/A   Overcast
1:41 AM 35.1 °F 30.1 °F 32.0 °F 89% 29.74 in 10.0 mi NE 5.8 mph - N/A   Overcast
1:53 AM 34.0 °F 28.8 °F 32.0 °F 92% 29.77 in 10.0 mi ENE 5.8 mph - N/A   Overcast
2:53 AM 34.0 °F 28.8 °F 32.0 °F 92% 29.77 in 9.0 mi NE 5.8 mph - N/A   Overcast
3:53 AM 34.0 °F 28.8 °F 32.0 °F 92% 29.76 in 8.0 mi ENE 5.8 mph - N/A   Overcast
4:53 AM 34.0 °F 28.8 °F 32.0 °F 92% 29.78 in 9.0 mi ENE 5.8 mph - N/A   Overcast
5:53 AM 34.0 °F 28.8 °F 32.0 °F 92% 29.80 in 10.0 mi East 5.8 mph - N/A   Overcast
6:53 AM 34.0 °F 28.8 °F 30.9 °F 89% 29.81 in 10.0 mi East 5.8 mph - N/A   Overcast
7:53 AM 34.0 °F 28.8 °F 30.9 °F 89% 29.82 in 9.0 mi ENE 5.8 mph - N/A   Overcast
8:53 AM 35.1 °F 31.0 °F 32.0 °F 89% 29.84 in 10.0 mi East 4.6 mph - N/A   Overcast
9:53 AM 36.0 °F - 32.0 °F 86% 29.85 in 10.0 mi Calm Calm - N/A   Overcast
10:53 AM 39.0 °F 36.8 °F 33.1 °F 79% 29.85 in 10.0 mi NE 3.5 mph - N/A   Overcast
11:53 AM 39.9 °F - 34.0 °F 79% 29.85 in 10.0 mi Calm Calm - N/A   Overcast
12:53 PM 41.0 °F - 33.1 °F 73% 29.84 in 10.0 mi Calm Calm - N/A   Overcast
2:53 PM 37.9 °F 32.7 °F 32.0 °F 79% 29.86 in 10.0 mi ENE 6.9 mph - N/A   Overcast
3:53 PM 37.9 °F 35.5 °F 32.0 °F 79% 29.88 in 10.0 mi NNE 3.5 mph - N/A   Overcast
4:09 PM 37.9 °F 33.5 °F 32.0 °F 79% 29.84 in 10.0 mi NE 5.8 mph - N/A   Overcast
4:19 PM 37.0 °F 32.4 °F 32.0 °F 82% 29.85 in 10.0 mi NE 5.8 mph - N/A   Overcast
4:53 PM 37.0 °F 33.3 °F 32.0 °F 82% 29.90 in 10.0 mi NE 4.6 mph - N/A   Overcast
5:53 PM 37.0 °F - 32.0 °F 82% 29.92 in 10.0 mi Calm Calm - N/A   Overcast
6:53 PM 36.0 °F 32.1 °F 32.0 °F 86% 29.94 in 10.0 mi East 4.6 mph - N/A   Overcast
7:31 PM 36.0 °F 33.3 °F 32.0 °F 86% 29.90 in 10.0 mi East 3.5 mph - N/A   Overcast
7:53 PM 36.0 °F - 32.0 °F 86% 29.95 in 10.0 mi Calm Calm - N/A   Overcast
8:43 PM 35.1 °F 32.2 °F 30.9 °F 85% 29.91 in 10.0 mi ESE 3.5 mph - N/A   Overcast
8:53 PM 36.0 °F 33.3 °F 32.0 °F 86% 29.95 in 10.0 mi SE 3.5 mph - N/A   Overcast
9:53 PM 35.1 °F - 32.0 °F 89% 29.95 in 10.0 mi Calm Calm - N/A   Overcast
10:53 PM 35.1 °F - 32.0 °F 89% 29.96 in 10.0 mi Calm Calm - N/A   Overcast
11:53 PM 35.1 °F - 32.0 °F 89% 29.96 in 10.0 mi Calm Calm - N/A   Overcast